Voltar ao catálogo

TITAN 3C TRANSTAGE DEB

AtivoGEO
NORAD 43517·DEBRIS·🇺🇸 United States

Lançado Feb 9, 1969 de Cape Canaveral Space Force Station

Loading…

TLE

AtualizadoSource: Space-Track

Época: Sep 3, 2026, 21:45 UTC

1 43517U 69013V   26246.90649925 -.00000130  00000-0  00000-0 0  9998
2 43517   1.5375 103.2372 0074574 178.3913 182.1337  0.94323557 28597

Acompanhe TITAN 3C TRANSTAGE DEB em tempo real com AllMySat

Download on the App Store